Location: Newark
(52.5694°N, 1.3190°W)
Time: 01:12:27
(UTC+00:00)

N. Korean satellite - Pass Details

Date: 25 January 2020
Orbit: 456 x 505 km, 97.2° (Epoch: 21 February)

Event Time Altitude Azimuth Distance (km) Brightness Sun altitude
Rises 07:14:32 0° 1° (N) 2,531 10.0 -6.8°
Reaches altitude 10° 07:17:00 10° 343° (NNW) 1,657 8.9 -6.4°
Maximum altitude 07:19:33 19° 297° (WNW) 1,214 8.0 -6.1°
Drops below altitude 10° 07:22:06 10° 252° (WSW) 1,668 8.8 -5.7°
Sets 07:24:36 0° 234° (SW) 2,554 9.9 -5.4°
